Weather History for Billings, MT

Change the Weather History Date:

Friday, December 2, 2011

  Actual Average Record
Temperature  
Mean Temperature 31 °F 29 °F  
Max Temperature 37 °F 37 °F 63 °F (1956)
Min Temperature 24 °F 20 °F -23 °F (1985)
Degree Days  
Heating Degree Days 34 36  
Month to date heating degree days 71 72  
Since 1 July heating degree days 1460 1700  
Cooling Degree Days 0 0  
Month to date cooling degree days 0 0  
Year to date cooling degree days 734 636  
Moisture  
Dew Point 13 °F    
Average Humidity 48    
Maximum Humidity 63    
Minimum Humidity 33    
Precipitation  
Precipitation T in 0.02 in 0.98 in (2013)
Month to date precipitation T 0.04  
Year to date precipitation 19.33 13.20  
Snow  
Snow T in 0.20 in 6.20 in (2013)
Month to date snowfall T 0.5  
Since 1 July snowfall 6.5 12.2  
Snow Depth 0.00 in    
Sea Level Pressure  
Sea Level Pressure 30.04 in    
Wind  
Wind Speed 16 mph (WNW)    
Max Wind Speed 33 mph    
Max Gust Speed 39 mph    
Visibility 10 miles    
Events Snow    
T = Trace of Precipitation, MM = Missing Value Source: NWS Daily Summary

Daily Weather History Graph

Daily Weather History Graph

Search for Another Location

Airport:

Trip Planner

Search our weather history database for the weather conditions in past years. The results will help you decide how hot, cold, wet, or windy it might be!

Date:

Astronomy

Dec. 02, 2011 Rise Set
Actual Time 7:35 AM MST 4:31 PM MST
Civil Twilight 7:02 AM MST 5:04 PM MST
Nautical Twilight 6:24 AM MST 5:42 PM MST
Astronomical Twilight 5:48 AM MST 6:17 PM MST
Moon 12:30 PM MST (12/2) No Moon Set
Length of Visible Light 10h 02m
Length of Day
8h 55m
First Quarter, 54% of the Moon is Illuminated
Dec 2
First Quarter
Dec 10
Full
Dec 17
Last Quarter
Dec 24
New
Dec 31
First Quarter

Hourly Weather History & Observations

Time (MST) Temp. Windchill Dew Point Humidity Pressure Visibility Wind Dir Wind Speed Gust Speed Precip Events Conditions
12:53 AM 27.0 °F 11.0 °F 12.0 °F 53% 30.01 in 10.0 mi WSW 28.8 mph 36.8 mph N/A   Clear
1:53 AM 26.6 °F 11.4 °F 10.4 °F 51% 29.87 in 10.0 mi WSW 25.3 mph 36.8 mph N/A   Clear
2:53 AM 30.0 °F 15.2 °F 9.0 °F 41% 29.93 in 10.0 mi WSW 28.8 mph 39.1 mph N/A   Clear
3:53 AM 30.0 °F 16.3 °F 7.0 °F 38% 29.90 in 10.0 mi WSW 24.2 mph 34.5 mph N/A   Clear
4:53 AM 32.0 °F 19.5 °F 6.8 °F 35% 29.80 in 10.0 mi WSW 21.9 mph 26.5 mph N/A   Scattered Clouds
5:53 AM 30.9 °F 22.2 °F 9.0 °F 40% 29.90 in 10.0 mi SW 10.4 mph - N/A   Mostly Cloudy
6:53 AM 30.9 °F 18.7 °F 10.0 °F 42% 29.91 in 10.0 mi SW 19.6 mph - N/A   Overcast
7:53 AM 30.9 °F 20.2 °F 10.0 °F 42% 29.92 in 10.0 mi SW 15.0 mph - N/A   Overcast
8:53 AM 34.0 °F 23.8 °F 10.0 °F 37% 29.92 in 10.0 mi WSW 16.1 mph - N/A   Overcast
9:53 AM 30.9 °F 18.7 °F 10.9 °F 43% 29.94 in 10.0 mi SW 19.6 mph - N/A   Overcast
10:53 AM 35.1 °F 25.5 °F 12.0 °F 39% 29.96 in 10.0 mi NW 15.0 mph 19.6 mph N/A   Mostly Cloudy
11:53 AM 35.1 °F 24.5 °F 21.9 °F 59% 29.99 in 10.0 mi North 18.4 mph 31.1 mph N/A   Mostly Cloudy
12:53 PM 33.1 °F 23.0 °F 17.1 °F 52% 30.02 in 10.0 mi North 15.0 mph 25.3 mph N/A   Mostly Cloudy
1:53 PM 35.1 °F 26.4 °F 14.0 °F 42% 30.03 in 10.0 mi North 12.7 mph - N/A   Mostly Cloudy
2:53 PM 35.1 °F 24.5 °F 10.9 °F 37% 30.04 in 10.0 mi North 18.4 mph 23.0 mph N/A   Mostly Cloudy
3:53 PM 33.1 °F 25.5 °F 14.0 °F 46% 30.09 in 10.0 mi NNE 9.2 mph - N/A   Mostly Cloudy
4:53 PM 30.9 °F 22.8 °F 12.9 °F 47% 30.12 in 10.0 mi North 9.2 mph - N/A   Mostly Cloudy
5:53 PM 27.0 °F 21.6 °F 12.0 °F 53% 30.17 in 10.0 mi NW 4.6 mph - N/A   Scattered Clouds
6:53 PM 28.9 °F 21.1 °F 16.0 °F 58% 30.19 in 9.0 mi NW 8.1 mph - 0.00 in Snow Light Snow
7:53 PM 25.0 °F 16.3 °F 15.1 °F 66% 30.22 in 10.0 mi WNW 8.1 mph - 0.00 in   Scattered Clouds
8:53 PM 26.1 °F 15.0 °F 16.0 °F 66% 30.22 in 10.0 mi WNW 12.7 mph - N/A   Partly Cloudy
9:53 PM 27.0 °F 17.3 °F 15.1 °F 61% 30.23 in 10.0 mi WNW 10.4 mph - N/A   Mostly Cloudy
10:53 PM 27.0 °F 12.8 °F 16.0 °F 63% 30.23 in 10.0 mi NW 21.9 mph 26.5 mph N/A   Partly Cloudy
11:53 PM 25.0 °F 12.2 °F 17.1 °F 72% 30.26 in 10.0 mi NW 16.1 mph - N/A   Partly Cloudy